Time,TemperatureF,DewpointF,PressureIn,WindDirection,WindDirectionDegrees,WindSpeedMPH,WindSpeedGustMPH,Humidity,HourlyPrecipIn,Conditions,Clouds,dailyrainin,SoftwareType,DateUTC
2013-04-29 00:03:00,52.0,51.0,29.81,ENE,70,2.0,-999.0,95,-99.99,,,-99.99,,2013-04-29 04:03:00,
2013-04-29 00:13:00,52.0,51.0,29.81,ENE,70,2.0,-999.0,95,-99.99,,,-99.99,,2013-04-29 04:13:00,
2013-04-29 00:23:00,52.0,51.0,29.81,ENE,65,2.0,-999.0,96,-99.99,,,-99.99,,2013-04-29 04:23:00,
2013-04-29 00:33:00,52.0,51.0,29.81,ENE,63,1.0,-999.0,96,-99.99,,,-99.99,,2013-04-29 04:33:00,
2013-04-29 00:43:00,52.0,51.0,29.81,ENE,63,1.0,-999.0,96,-99.99,,,-99.99,,2013-04-29 04:43:00,
2013-04-29 00:52:00,52.0,51.0,29.81,NE,53,2.0,-999.0,96,-99.99,,,-99.99,,2013-04-29 04:52:00,
2013-04-29 01:02:00,52.0,51.0,29.81,NE,56,1.0,-999.0,97,-99.99,,,-99.99,,2013-04-29 05:02:00,
2013-04-29 01:12:00,52.0,51.0,29.81,NE,56,1.0,-999.0,97,-99.99,,,-99.99,,2013-04-29 05:12:00,
2013-04-29 01:22:00,52.0,51.0,29.80,ENE,61,1.0,-999.0,97,-99.99,,,-99.99,,2013-04-29 05:22:00,
2013-04-29 01:32:00,52.0,51.0,29.80,ENE,61,1.0,-999.0,97,-99.99,,,-99.99,,2013-04-29 05:32:00,
2013-04-29 01:42:00,52.0,51.0,29.80,ENE,61,1.0,-999.0,97,-99.99,,,-99.99,,2013-04-29 05:42:00,
2013-04-29 01:52:00,52.0,51.0,29.81,ENE,61,0.0,-999.0,97,-99.99,,,-99.99,,2013-04-29 05:52:00,
2013-04-29 02:02:00,52.0,51.0,29.81,ENE,61,2.0,-999.0,97,-99.99,,,-99.99,,2013-04-29 06:02:00,
2013-04-29 02:12:00,52.0,51.0,29.81,ENE,61,2.0,-999.0,97,-99.99,,,-99.99,,2013-04-29 06:12:00,
2013-04-29 02:22:00,52.0,51.0,29.80,ENE,61,0.0,-999.0,97,-99.99,,,-99.99,,2013-04-29 06:22:00,
2013-04-29 02:32:00,52.0,51.0,29.80,ENE,61,0.0,-999.0,97,-99.99,,,-99.99,,2013-04-29 06:32:00,
2013-04-29 02:42:00,52.0,51.0,29.80,ENE,61,0.0,-999.0,97,-99.99,,,-99.99,,2013-04-29 06:42:00,
2013-04-29 02:52:00,52.0,51.0,29.80,ENE,61,0.0,-999.0,97,-99.99,,,-99.99,,2013-04-29 06:52:00,
2013-04-29 03:02:00,52.0,51.0,29.80,ENE,61,0.0,-999.0,97,-99.99,,,-99.99,,2013-04-29 07:02:00,
2013-04-29 03:11:00,52.0,51.0,29.80,ENE,61,0.0,-999.0,97,-99.99,,,-99.99,,2013-04-29 07:11:00,
2013-04-29 03:21:00,52.0,51.0,29.80,ENE,61,0.0,-999.0,97,-99.99,,,-99.99,,2013-04-29 07:21:00,
2013-04-29 03:32:00,52.0,51.0,29.80,ENE,61,0.0,-999.0,97,-99.99,,,-99.99,,2013-04-29 07:32:00,
2013-04-29 03:42:00,52.0,51.0,29.80,ENE,61,0.0,-999.0,97,-99.99,,,-99.99,,2013-04-29 07:42:00,
2013-04-29 03:52:00,52.0,51.0,29.80,ENE,61,0.0,-999.0,98,-99.99,,,-99.99,,2013-04-29 07:52:00,
2013-04-29 04:03:00,52.0,51.0,29.80,ENE,61,0.0,-999.0,98,-99.99,,,-99.99,,2013-04-29 08:03:00,
2013-04-29 04:11:00,52.0,51.0,29.80,ENE,61,0.0,-999.0,98,-99.99,,,-99.99,,2013-04-29 08:11:00,
2013-04-29 04:21:00,52.0,51.0,29.80,ENE,61,0.0,-999.0,98,-99.99,,,-99.99,,2013-04-29 08:21:00,
2013-04-29 04:32:00,52.0,51.0,29.81,NW,307,4.0,-999.0,98,-99.99,,,-99.99,,2013-04-29 08:32:00,
2013-04-29 04:42:00,52.0,51.0,29.81,NW,307,4.0,-999.0,98,-99.99,,,-99.99,,2013-04-29 08:42:00,
2013-04-29 04:51:00,52.0,51.0,29.81,NW,307,3.0,-999.0,98,-99.99,,,-99.99,,2013-04-29 08:51:00,
2013-04-29 05:01:00,52.0,51.0,29.81,NW,307,1.0,-999.0,98,-99.99,,,-99.99,,2013-04-29 09:01:00,
2013-04-29 05:12:00,52.0,51.0,29.81,NW,307,1.0,-999.0,98,-99.99,,,-99.99,,2013-04-29 09:12:00,
2013-04-29 05:21:00,52.0,51.0,29.81,NW,307,0.0,-999.0,98,-99.99,,,-99.99,,2013-04-29 09:21:00,
2013-04-29 05:33:00,52.0,51.0,29.81,NW,307,0.0,-999.0,98,-99.99,,,-99.99,,2013-04-29 09:33:00,
2013-04-29 05:42:00,52.0,51.0,29.81,NW,307,0.0,-999.0,98,-99.99,,,-99.99,,2013-04-29 09:42:00,
2013-04-29 05:53:00,52.0,51.0,29.81,NW,307,0.0,-999.0,98,-99.99,,,-99.99,,2013-04-29 09:53:00,
2013-04-29 06:02:00,52.0,51.0,29.82,NW,307,0.0,-999.0,98,-99.99,,,-99.99,,2013-04-29 10:02:00,
2013-04-29 06:12:00,52.0,51.0,29.82,NW,307,0.0,-999.0,98,-99.99,,,-99.99,,2013-04-29 10:12:00,
2013-04-29 06:23:00,52.0,51.0,29.82,NW,307,0.0,-999.0,98,-99.99,,,-99.99,,2013-04-29 10:23:00,
2013-04-29 06:32:00,52.0,51.0,29.83,NW,307,0.0,-999.0,98,-99.99,,,-99.99,,2013-04-29 10:32:00,
2013-04-29 06:42:00,52.0,51.0,29.83,NW,307,0.0,-999.0,98,-99.99,,,-99.99,,2013-04-29 10:42:00,
2013-04-29 06:52:00,52.0,51.0,29.83,NW,307,0.0,-999.0,98,-99.99,,,-99.99,,2013-04-29 10:52:00,
2013-04-29 07:03:00,52.0,51.0,29.83,NW,307,0.0,-999.0,98,-99.99,,,-99.99,,2013-04-29 11:03:00,
2013-04-29 07:12:00,52.0,51.0,29.83,NW,307,0.0,-999.0,98,-99.99,,,-99.99,,2013-04-29 11:12:00,
2013-04-29 07:22:00,52.0,51.0,29.83,NW,307,0.0,-999.0,98,-99.99,,,-99.99,,2013-04-29 11:22:00,
2013-04-29 07:32:00,52.0,51.0,29.83,NW,307,0.0,-999.0,98,-99.99,,,-99.99,,2013-04-29 11:32:00,
2013-04-29 07:42:00,52.0,51.0,29.83,NW,307,0.0,-999.0,98,-99.99,,,-99.99,,2013-04-29 11:42:00,
2013-04-29 07:52:00,52.0,51.0,29.84,NW,307,0.0,-999.0,98,-99.99,,,-99.99,,2013-04-29 11:52:00,
2013-04-29 08:01:00,52.0,51.0,29.84,NW,307,0.0,-999.0,98,-99.99,,,-99.99,,2013-04-29 12:01:00,
2013-04-29 08:12:00,52.0,51.0,29.84,NW,307,0.0,-999.0,98,-99.99,,,-99.99,,2013-04-29 12:12:00,
2013-04-29 08:22:00,52.0,51.0,29.85,NW,307,0.0,-999.0,98,-99.99,,,-99.99,,2013-04-29 12:22:00,
2013-04-29 08:32:00,53.0,52.0,29.85,NW,307,0.0,-999.0,98,-99.99,,,-99.99,,2013-04-29 12:32:00,
2013-04-29 08:42:00,53.0,52.0,29.85,NW,307,0.0,-999.0,98,-99.99,,,-99.99,,2013-04-29 12:42:00,
2013-04-29 08:52:00,53.0,52.0,29.86,NW,307,1.0,-999.0,98,-99.99,,,-99.99,,2013-04-29 12:52:00,
2013-04-29 09:01:00,53.0,52.0,29.86,NW,307,2.0,-999.0,98,-99.99,,,-99.99,,2013-04-29 13:01:00,
2013-04-29 09:11:00,53.0,52.0,29.86,NW,307,2.0,-999.0,98,-99.99,,,-99.99,,2013-04-29 13:11:00,
2013-04-29 09:21:00,53.0,52.0,29.86,WSW,242,3.0,-999.0,98,-99.99,,,-99.99,,2013-04-29 13:21:00,
2013-04-29 09:32:00,54.0,53.0,29.87,WSW,242,3.0,-999.0,98,-99.99,,,-99.99,,2013-04-29 13:32:00,
2013-04-29 09:42:00,54.0,53.0,29.87,WSW,242,3.0,-999.0,98,-99.99,,,-99.99,,2013-04-29 13:42:00,
2013-04-29 09:52:00,54.0,53.0,29.86,WSW,252,3.0,-999.0,97,-99.99,,,-99.99,,2013-04-29 13:52:00,
2013-04-29 10:02:00,56.0,53.0,29.87,WNW,288,3.0,-999.0,91,-99.99,,,-99.99,,2013-04-29 14:02:00,
2013-04-29 10:11:00,56.0,53.0,29.87,WNW,288,3.0,-999.0,91,-99.99,,,-99.99,,2013-04-29 14:11:00,
2013-04-29 10:21:00,56.0,52.0,29.87,WNW,293,4.0,-999.0,87,-99.99,,,-99.99,,2013-04-29 14:21:00,
2013-04-29 10:32:00,56.0,52.0,29.86,WSW,252,4.0,-999.0,86,-99.99,,,-99.99,,2013-04-29 14:32:00,
2013-04-29 10:42:00,56.0,52.0,29.86,WSW,252,4.0,-999.0,86,-99.99,,,-99.99,,2013-04-29 14:42:00,
2013-04-29 10:52:00,58.0,53.0,29.86,SSW,197,2.0,-999.0,84,-99.99,,,-99.99,,2013-04-29 14:52:00,
2013-04-29 11:01:00,59.0,52.0,29.85,SW,230,2.0,-999.0,79,-99.99,,,-99.99,,2013-04-29 15:01:00,
2013-04-29 11:12:00,59.0,52.0,29.85,SW,230,2.0,-999.0,79,-99.99,,,-99.99,,2013-04-29 15:12:00,
2013-04-29 11:21:00,58.0,53.0,29.85,NNW,329,2.0,-999.0,82,-99.99,,,-99.99,,2013-04-29 15:21:00,
2013-04-29 11:33:00,59.0,53.0,29.86,SSE,168,5.0,-999.0,80,-99.99,,,-99.99,,2013-04-29 15:33:00,
2013-04-29 11:42:00,59.0,53.0,29.86,SSE,168,5.0,-999.0,80,-99.99,,,-99.99,,2013-04-29 15:42:00,
2013-04-29 11:53:00,59.0,52.0,29.85,ESE,109,4.0,-999.0,78,-99.99,,,-99.99,,2013-04-29 15:53:00,
2013-04-29 12:03:00,60.0,54.0,29.85,East,94,4.0,-999.0,80,-99.99,,,-99.99,,2013-04-29 16:03:00,
2013-04-29 12:12:00,60.0,54.0,29.85,East,94,4.0,-999.0,80,-99.99,,,-99.99,,2013-04-29 16:12:00,
2013-04-29 12:23:00,60.0,53.0,29.85,East,86,4.0,-999.0,78,-99.99,,,-99.99,,2013-04-29 16:23:00,
2013-04-29 12:33:00,60.0,53.0,29.85,East,100,5.0,-999.0,78,-99.99,,,-99.99,,2013-04-29 16:33:00,
2013-04-29 12:42:00,60.0,53.0,29.85,East,100,5.0,-999.0,78,-99.99,,,-99.99,,2013-04-29 16:42:00,
2013-04-29 12:52:00,59.0,52.0,29.85,ESE,105,7.0,-999.0,79,-99.99,,,-99.99,,2013-04-29 16:52:00,
2013-04-29 13:02:00,60.0,53.0,29.85,ESE,106,4.0,-999.0,77,-99.99,,,-99.99,,2013-04-29 17:02:00,
2013-04-29 13:12:00,60.0,53.0,29.85,ESE,106,4.0,-999.0,77,-99.99,,,-99.99,,2013-04-29 17:12:00,
2013-04-29 13:22:00,60.0,53.0,29.85,East,96,6.0,-999.0,78,-99.99,,,-99.99,,2013-04-29 17:22:00,
2013-04-29 13:32:00,60.0,53.0,29.84,ESE,107,6.0,-999.0,79,-99.99,,,-99.99,,2013-04-29 17:32:00,
2013-04-29 13:42:00,60.0,53.0,29.84,ESE,107,6.0,-999.0,79,-99.99,,,-99.99,,2013-04-29 17:42:00,
2013-04-29 13:52:00,59.0,53.0,29.84,ESE,120,7.0,-999.0,80,-99.99,,,-99.99,,2013-04-29 17:52:00,
2013-04-29 14:01:00,61.0,54.0,29.84,ESE,105,5.0,-999.0,78,-99.99,,,-99.99,,2013-04-29 18:01:00,
2013-04-29 14:13:00,61.0,54.0,29.84,ESE,105,5.0,-999.0,78,-99.99,,,-99.99,,2013-04-29 18:13:00,
2013-04-29 14:22:00,61.0,54.0,29.83,ENE,71,5.0,-999.0,78,-99.99,,,-99.99,,2013-04-29 18:22:00,
2013-04-29 14:32:00,60.0,53.0,29.83,ESE,113,7.0,-999.0,78,-99.99,,,-99.99,,2013-04-29 18:32:00,
2013-04-29 14:42:00,60.0,53.0,29.83,ESE,113,7.0,-999.0,78,-99.99,,,-99.99,,2013-04-29 18:42:00,
2013-04-29 14:52:00,61.0,54.0,29.83,East,92,7.0,-999.0,79,-99.99,,,-99.99,,2013-04-29 18:52:00,
2013-04-29 15:01:00,63.0,55.0,29.83,East,94,5.0,-999.0,76,-99.99,,,-99.99,,2013-04-29 19:01:00,
2013-04-29 15:11:00,63.0,55.0,29.83,East,94,5.0,-999.0,76,-99.99,,,-99.99,,2013-04-29 19:11:00,
2013-04-29 15:22:00,63.0,55.0,29.83,ESE,113,5.0,-999.0,75,-99.99,,,-99.99,,2013-04-29 19:22:00,
2013-04-29 15:32:00,63.0,56.0,29.83,ESE,105,5.0,-999.0,77,-99.99,,,-99.99,,2013-04-29 19:32:00,
2013-04-29 15:42:00,63.0,56.0,29.83,ESE,105,5.0,-999.0,77,-99.99,,,-99.99,,2013-04-29 19:42:00,
2013-04-29 15:52:00,64.0,56.0,29.83,ESE,102,6.0,-999.0,75,-99.99,,,-99.99,,2013-04-29 19:52:00,
2013-04-29 16:02:00,64.0,55.0,29.82,ESE,121,5.0,-999.0,73,-99.99,,,-99.99,,2013-04-29 20:02:00,
2013-04-29 16:12:00,64.0,55.0,29.82,ESE,121,5.0,-999.0,73,-99.99,,,-99.99,,2013-04-29 20:12:00,
2013-04-29 16:22:00,64.0,55.0,29.81,East,92,5.0,-999.0,73,-99.99,,,-99.99,,2013-04-29 20:22:00,
2013-04-29 16:32:00,65.0,56.0,29.81,ESE,117,5.0,-999.0,72,-99.99,,,-99.99,,2013-04-29 20:32:00,
2013-04-29 16:42:00,65.0,56.0,29.81,ESE,117,5.0,-999.0,72,-99.99,,,-99.99,,2013-04-29 20:42:00,
2013-04-29 16:52:00,67.0,56.0,29.80,SE,131,5.0,-999.0,67,-99.99,,,-99.99,,2013-04-29 20:52:00,
2013-04-29 17:01:00,66.0,55.0,29.80,East,96,3.0,-999.0,68,-99.99,,,-99.99,,2013-04-29 21:01:00,
2013-04-29 17:11:00,66.0,55.0,29.80,East,96,3.0,-999.0,68,-99.99,,,-99.99,,2013-04-29 21:11:00,
2013-04-29 17:22:00,65.0,55.0,29.80,ESE,109,4.0,-999.0,70,-99.99,,,-99.99,,2013-04-29 21:22:00,
2013-04-29 17:33:00,65.0,55.0,29.80,SE,134,3.0,-999.0,71,-99.99,,,-99.99,,2013-04-29 21:33:00,
2013-04-29 17:43:00,65.0,55.0,29.80,SE,134,3.0,-999.0,71,-99.99,,,-99.99,,2013-04-29 21:43:00,
2013-04-29 17:53:00,66.0,55.0,29.80,SE,125,3.0,-999.0,67,-99.99,,,-99.99,,2013-04-29 21:53:00,
2013-04-29 18:02:00,68.0,56.0,29.80,SE,134,2.0,-999.0,65,-99.99,,,-99.99,,2013-04-29 22:02:00,
2013-04-29 18:13:00,68.0,56.0,29.80,SE,134,2.0,-999.0,65,-99.99,,,-99.99,,2013-04-29 22:13:00,
2013-04-29 18:23:00,68.0,54.0,29.80,South,172,4.0,-999.0,61,-99.99,,,-99.99,,2013-04-29 22:23:00,
2013-04-29 18:32:00,69.0,54.0,29.80,South,176,8.0,-999.0,59,-99.99,,,-99.99,,2013-04-29 22:32:00,
2013-04-29 18:42:00,69.0,54.0,29.80,South,176,8.0,-999.0,59,-99.99,,,-99.99,,2013-04-29 22:42:00,
2013-04-29 18:53:00,69.0,54.0,29.80,SSE,147,6.0,-999.0,59,-99.99,,,-99.99,,2013-04-29 22:53:00,
2013-04-29 19:02:00,69.0,54.0,29.80,SE,145,6.0,-999.0,59,-99.99,,,-99.99,,2013-04-29 23:02:00,
2013-04-29 19:12:00,69.0,54.0,29.80,SE,145,6.0,-999.0,59,-99.99,,,-99.99,,2013-04-29 23:12:00,
2013-04-29 19:22:00,69.0,54.0,29.80,SSW,198,6.0,-999.0,59,-99.99,,,-99.99,,2013-04-29 23:22:00,
2013-04-29 19:32:00,68.0,54.0,29.80,South,171,5.0,-999.0,61,-99.99,,,-99.99,,2013-04-29 23:32:00,
2013-04-29 19:42:00,68.0,54.0,29.80,South,171,5.0,-999.0,61,-99.99,,,-99.99,,2013-04-29 23:42:00,
2013-04-29 19:53:00,68.0,54.0,29.80,SE,137,5.0,-999.0,61,-99.99,,,-99.99,,2013-04-29 23:53:00,
2013-04-29 20:01:00,68.0,54.0,29.80,SSE,155,4.0,-999.0,61,-99.99,,,-99.99,,2013-04-30 00:01:00,
2013-04-29 20:11:00,68.0,54.0,29.80,SSE,155,4.0,-999.0,61,-99.99,,,-99.99,,2013-04-30 00:11:00,
2013-04-29 20:21:00,67.0,54.0,29.80,SSE,148,2.0,-999.0,64,-99.99,,,-99.99,,2013-04-30 00:21:00,
2013-04-29 20:32:00,67.0,55.0,29.81,SSE,158,3.0,-999.0,65,-99.99,,,-99.99,,2013-04-30 00:32:00,
2013-04-29 20:42:00,67.0,55.0,29.81,SSE,158,3.0,-999.0,65,-99.99,,,-99.99,,2013-04-30 00:42:00,
2013-04-29 20:52:00,66.0,54.0,29.81,SE,138,3.0,-999.0,65,-99.99,,,-99.99,,2013-04-30 00:52:00,
2013-04-29 21:02:00,65.0,54.0,29.80,SE,124,3.0,-999.0,67,-99.99,,,-99.99,,2013-04-30 01:02:00,
2013-04-29 21:11:00,65.0,54.0,29.80,SE,124,3.0,-999.0,67,-99.99,,,-99.99,,2013-04-30 01:11:00,
2013-04-29 21:22:00,65.0,54.0,29.81,SE,134,4.0,-999.0,68,-99.99,,,-99.99,,2013-04-30 01:22:00,
2013-04-29 21:32:00,65.0,55.0,29.81,SE,146,4.0,-999.0,69,-99.99,,,-99.99,,2013-04-30 01:32:00,
2013-04-29 21:41:00,65.0,55.0,29.81,SE,146,4.0,-999.0,69,-99.99,,,-99.99,,2013-04-30 01:41:00,
2013-04-29 21:52:00,65.0,55.0,29.81,SE,127,4.0,-999.0,69,-99.99,,,-99.99,,2013-04-30 01:52:00,
2013-04-29 22:01:00,65.0,54.0,29.82,SSE,148,4.0,-999.0,68,-99.99,,,-99.99,,2013-04-30 02:01:00,
2013-04-29 22:11:00,65.0,54.0,29.82,SSE,148,4.0,-999.0,68,-99.99,,,-99.99,,2013-04-30 02:11:00,
2013-04-29 22:21:00,65.0,54.0,29.82,ESE,123,4.0,-999.0,68,-99.99,,,-99.99,,2013-04-30 02:21:00,
2013-04-29 22:31:00,64.0,53.0,29.82,SE,134,4.0,-999.0,68,-99.99,,,-99.99,,2013-04-30 02:31:00,
2013-04-29 22:41:00,64.0,53.0,29.82,SE,134,4.0,-999.0,68,-99.99,,,-99.99,,2013-04-30 02:41:00,
2013-04-29 22:52:00,64.0,53.0,29.82,SE,143,6.0,-999.0,68,-99.99,,,-99.99,,2013-04-30 02:52:00,
2013-04-29 23:01:00,64.0,54.0,29.83,SE,138,5.0,-999.0,69,-99.99,,,-99.99,,2013-04-30 03:01:00,
2013-04-29 23:11:00,64.0,54.0,29.83,SE,138,5.0,-999.0,69,-99.99,,,-99.99,,2013-04-30 03:11:00,
2013-04-29 23:21:00,64.0,54.0,29.83,SSE,148,5.0,-999.0,71,-99.99,,,-99.99,,2013-04-30 03:21:00,
2013-04-29 23:33:00,63.0,55.0,29.83,SE,142,5.0,-999.0,74,-99.99,,,-99.99,,2013-04-30 03:33:00,
2013-04-29 23:43:00,63.0,55.0,29.83,SE,142,5.0,-999.0,74,-99.99,,,-99.99,,2013-04-30 03:43:00,
2013-04-29 23:52:00,62.0,54.0,29.83,SSE,165,5.0,-999.0,75,-99.99,,,-99.99,,2013-04-30 03:52:00,